Weather History for Tucson Davis Monthan, AZ

Change the Weather History Date:

Tuesday, August 6, 2013

  Actual Average Record
Temperature  
Mean Temperature 74 °F -  
Max Temperature 80 °F 97 °F 105 °F (1953)
Min Temperature 69 °F 74 °F 68 °F (1955)
Cooling Degree Days 10    
Growing Degree Days 24 (Base 50)    
Moisture  
Dew Point 65 °F    
Average Humidity 74    
Maximum Humidity 94    
Minimum Humidity 49    
Precipitation  
Precipitation 0.02 in - - ()
Sea Level Pressure  
Sea Level Pressure 29.98 in    
Wind  
Wind Speed 5 mph (SW)    
Max Wind Speed 16 mph    
Max Gust Speed 23 mph    
Visibility 10 miles    
Events Rain , Thunderstorm    
Averages and records for this station are not official NWS values.
T = Trace of Precipitation, MM = Missing Value Source: NWS Daily Summary

Daily Weather History Graph

Daily Weather History Graph

Search for Another Location

Airport:

Trip Planner

Search our weather history database for the weather conditions in past years. The results will help you decide how hot, cold, wet, or windy it might be!

Date:

Astronomy

Aug. 06, 2013 Rise Set
Actual Time 5:42 AM MST 7:16 PM MST
Civil Twilight 5:15 AM MST 7:42 PM MST
Nautical Twilight 4:44 AM MST 8:14 PM MST
Astronomical Twilight 4:10 AM MST 8:47 PM MST
Moon 5:33 AM MST (8/6) 6:58 PM MST (8/6)
Length of Visible Light 14h 26m
Length of Day
13h 34m
Waning Crescent, 0% of the Moon is Illuminated
Aug 6
Waning Crescent
Aug 6
New
Aug 14
First Quarter
Aug 20
Full
Aug 28
Last Quarter

Hourly Weather History & Observations

Time (MST) Temp. Heat Index Dew Point Humidity Pressure Visibility Wind Dir Wind Speed Gust Speed Precip Events Conditions
12:03 AM 69.8 °F - 68.0 °F 94% 30.05 in 9.0 mi SE 6.9 mph - N/A Rain Light Rain
12:08 AM 69.8 °F - 68.0 °F 94% 30.05 in 9.0 mi SE 5.8 mph - N/A   Light Drizzle
12:28 AM 69.8 °F - 68.0 °F 94% 30.05 in 8.0 mi SSE 6.9 mph - N/A   Light Drizzle
12:33 AM 69.8 °F - 68.0 °F 94% 30.05 in 6.0 mi SSE 4.6 mph - N/A   Light Drizzle
12:40 AM 69.8 °F - 68.0 °F 94% 30.05 in 7.0 mi South 4.6 mph - N/A   Scattered Clouds
12:45 AM 69.8 °F - 68.0 °F 94% 30.05 in 10.0 mi SSW 2.3 mph - N/A   Mostly Cloudy
12:58 AM 70.2 °F - 66.2 °F 87% 29.92 in 10.0 mi ESE 3.5 mph - 0.00 in   Mostly Cloudy
1:58 AM 70.3 °F - 66.7 °F 88% 29.92 in 10.0 mi Calm Calm - N/A   Mostly Cloudy
2:49 AM 71.6 °F - 64.4 °F 78% 30.04 in 10.0 mi Calm Calm - N/A   Light Drizzle
2:58 AM 71.4 °F - 65.5 °F 81% 29.90 in 10.0 mi NE 3.5 mph - 0.00 in   Light Drizzle
3:01 AM 71.6 °F - 66.2 °F 83% 30.03 in 10.0 mi NE 3.5 mph - N/A   Mostly Cloudy
3:58 AM 71.4 °F - 65.3 °F 81% 29.89 in 10.0 mi ESE 3.5 mph - 0.00 in   Mostly Cloudy
4:58 AM 70.7 °F - 66.9 °F 88% 29.90 in 10.0 mi SSW 4.6 mph - N/A   Mostly Cloudy
5:58 AM 70.9 °F - 66.6 °F 86% 29.93 in 10.0 mi West 1.2 mph - N/A   Mostly Cloudy
6:58 AM 71.8 °F - 65.5 °F 80% 29.94 in 10.0 mi South 1.2 mph - N/A   Mostly Cloudy
7:58 AM 74.8 °F - 64.2 °F 69% 29.96 in 10.0 mi Calm Calm - N/A   Partly Cloudy
8:23 AM 75.2 °F - 64.4 °F 69% 30.08 in 10.0 mi West 4.6 mph - N/A   Mostly Cloudy
8:48 AM 75.2 °F - 66.2 °F 73% 30.08 in 10.0 mi WNW 4.6 mph - N/A   Mostly Cloudy
8:58 AM 74.8 °F - 65.7 °F 73% 29.98 in 10.0 mi West 6.9 mph - N/A   Scattered Clouds
9:58 AM 77.7 °F - 64.8 °F 64% 29.99 in 10.0 mi NNW 5.8 mph - N/A   Clear
10:58 AM 79.9 °F - 64.0 °F 58% 29.98 in 10.0 mi NW 12.7 mph - N/A   Partly Cloudy
11:58 AM 80.8 °F 82.1 °F 63.3 °F 55% 29.97 in 10.0 mi NW 16.1 mph 23.0 mph N/A   Clear
12:58 PM 79.2 °F - 63.0 °F 57% 29.96 in 10.0 mi WNW 12.7 mph 20.7 mph N/A Thunderstorm Mostly Cloudy
1:26 PM 78.8 °F - 62.6 °F 57% 30.07 in 10.0 mi West 10.4 mph - N/A Thunderstorm Light Drizzle
1:58 PM 77.0 °F - 64.2 °F 65% 29.96 in 10.0 mi WSW 9.2 mph - 0.00 in Rain Light Rain
2:58 PM 74.7 °F - 64.9 °F 72% 29.95 in 10.0 mi West 5.8 mph - 0.02 in   Light Drizzle
3:17 PM 77.0 °F - 64.4 °F 65% 30.06 in 10.0 mi SW 8.1 mph - N/A   Partly Cloudy
3:58 PM 77.4 °F - 64.2 °F 64% 29.95 in 10.0 mi SSW 5.8 mph - 0.00 in   Clear
4:58 PM 80.4 °F 81.5 °F 62.1 °F 53% 29.92 in 10.0 mi WSW 4.6 mph - N/A   Scattered Clouds
5:58 PM 80.1 °F 81.2 °F 61.9 °F 54% 29.90 in 10.0 mi West 3.5 mph - N/A   Partly Cloudy
6:58 PM 80.2 °F 80.9 °F 59.7 °F 49% 29.92 in 10.0 mi NW 5.8 mph - N/A   Overcast
7:58 PM 77.4 °F - 61.2 °F 57% 29.91 in 10.0 mi SW 5.8 mph - N/A   Clear
8:58 PM 75.6 °F - 64.6 °F 69% 29.92 in 10.0 mi South 5.8 mph - N/A   Clear
9:58 PM 74.3 °F - 64.9 °F 72% 29.93 in 10.0 mi SSE 3.5 mph - N/A   Partly Cloudy
10:58 PM 72.7 °F - 65.5 °F 78% 29.95 in 10.0 mi SE 3.5 mph - N/A   Clear
11:58 PM 71.8 °F - 65.5 °F 80% 29.94 in 10.0 mi SSE 5.8 mph - N/A   Clear